Location: Seattle
(47.6064°N, 122.3308°W)
Time: 05:20:27
(UTC-07:00)

Tiros 1 - Pass Details

Date: 07 August 2021
Orbit: 630 x 663 km, 48.4° (Epoch: 25 September)

Event Time Altitude Azimuth Distance (km) Brightness Sun altitude
Rises 23:28:06 0° 280° (W) 2,970 11.1 -22.0°
Reaches altitude 10° 23:31:32 10° 255° (WSW) 2,047 9.8 -22.3°
Enters shadow 23:33:23 14° 232° (SW) 1,814 9.3 -22.4°
